Simultaneous Nadir Overpasses (SNOs) Predictions

Prediction of SNOs between GOES-16 and NOAA-19 Satellite Orbit:

Table of predicted SNOs for the next 14.0 days since TLE Epoch: 5/16/2025
Index Date Time (GOES-16) GOES-16 Lat,Lon NOAA-19 Lat,Lon Distance(km) Time Diff (sec)
1 05/19/2025 04:18:15 -0.05, -95.07 -0.59, -97.47 274.05 80
2 05/20/2025 04:03:00 -0.05, -95.59 0.22, -94.43 131.96 80
3 05/22/2025 16:24:13 0.05, -96.95 0.53, -98.90 224.19 80
4 05/23/2025 16:08:57 0.05, -97.47 -0.29, -95.86 182.07 80
5 05/26/2025 04:30:28 -0.04, -98.75 -0.41,-100.42 189.43 80
6 05/27/2025 04:15:12 -0.04, -99.27 0.37, -97.37 216.63 80
7 05/29/2025 16:36:26 0.03,-100.62 0.30,-101.86 140.50 80
8 05/30/2025 16:21:11 0.02,-101.14 -0.52, -98.82 265.63 80
